IBE1865 LEIB-EGHH

Flight info

Callsign IBE1865
Flight time N/A
Altitude 40000
Route EPAMA N856 UMURE N863 ARBEK/N0487F430 N863 GIROM DCT AGN DCT SECHE DCT UVELI DCT CNA DCT MANAK UY110 UPALO/N0426F280 UY110 ORIST Y110 THRED
Aircraft A359/H-SDE2E3GHIJ3J4J5LM1ORWXY/LB1D1

Departure

Time N/A
Airport Ibiza Airport (LEIB)

Arrival

Time 2026-04-27 15:55
Airport Bournemouth Airport (EGHH)
Time Latitude Longitude Altitude Speed Heading
2026-04-27 15:25 48.24699 -1.74443 40185 ft 491 kts 358°
2026-04-27 15:26 48.31840 -1.74476 40188 ft 491 kts 358°
2026-04-27 15:26 48.38673 -1.74546 40196 ft 491 kts 358°
2026-04-27 15:27 48.45504 -1.74631 40204 ft 490 kts 358°
2026-04-27 15:27 48.52335 -1.74717 40210 ft 490 kts 358°
2026-04-27 15:28 48.59105 -1.74799 39893 ft 487 kts 358°
2026-04-27 15:28 48.62532 -1.74840 39667 ft 486 kts 358°
2026-04-27 15:28 48.65873 -1.74882 39443 ft 486 kts 358°
2026-04-27 15:29 48.69258 -1.74925 39218 ft 487 kts 358°
2026-04-27 15:29 48.72688 -1.74967 38990 ft 487 kts 358°
2026-04-27 15:29 48.76033 -1.75009 38631 ft 486 kts 358°
2026-04-27 15:29 48.79407 -1.75050 38028 ft 484 kts 358°
2026-04-27 15:30 48.82775 -1.75091 37346 ft 484 kts 358°
2026-04-27 15:30 48.86145 -1.75133 36657 ft 484 kts 358°
2026-04-27 15:30 48.89515 -1.75176 35958 ft 485 kts 358°
2026-04-27 15:30 48.92903 -1.75212 35232 ft 487 kts 358°
2026-04-27 15:31 48.96295 -1.75147 34598 ft 487 kts 360°
2026-04-27 15:31 48.99668 -1.75003 33983 ft 484 kts
2026-04-27 15:31 49.03027 -1.74831 33398 ft 480 kts
2026-04-27 15:31 49.06360 -1.74662 32830 ft 476 kts
2026-04-27 15:32 49.09653 -1.74506 32270 ft 472 kts
2026-04-27 15:32 49.12821 -1.74368 31726 ft 468 kts
2026-04-27 15:32 49.16119 -1.74234 31157 ft 465 kts
2026-04-27 15:32 49.19298 -1.74110 30612 ft 461 kts
2026-04-27 15:33 49.22541 -1.73986 29995 ft 458 kts
2026-04-27 15:33 49.25712 -1.73866 29443 ft 453 kts
2026-04-27 15:33 49.28851 -1.73747 28899 ft 448 kts
2026-04-27 15:33 49.31914 -1.73630 28364 ft 443 kts
2026-04-27 15:34 49.34977 -1.73513 27834 ft 439 kts
2026-04-27 15:34 49.38024 -1.73395 27296 ft 434 kts
2026-04-27 15:34 49.41025 -1.73279 26766 ft 431 kts
2026-04-27 15:34 49.44008 -1.73164 26229 ft 427 kts
2026-04-27 15:35 49.46965 -1.73050 25704 ft 423 kts
2026-04-27 15:35 49.49903 -1.72937 25168 ft 420 kts 360°
2026-04-27 15:35 49.52815 -1.72823 24630 ft 417 kts
2026-04-27 15:35 49.55684 -1.72708 24100 ft 415 kts
2026-04-27 15:36 49.58595 -1.72652 23495 ft 411 kts 356°
2026-04-27 15:36 49.61418 -1.73132 22938 ft 406 kts 350°
2026-04-27 15:36 49.64234 -1.73821 22384 ft 401 kts 349°
2026-04-27 15:36 49.66962 -1.74587 21854 ft 396 kts 348°
2026-04-27 15:37 49.69666 -1.75396 21304 ft 392 kts 347°
2026-04-27 15:37 49.72331 -1.76211 20782 ft 388 kts 347°
2026-04-27 15:37 49.74964 -1.77020 20309 ft 383 kts 347°
2026-04-27 15:37 49.77563 -1.77823 19868 ft 378 kts 347°
2026-04-27 15:38 49.80123 -1.78621 19371 ft 374 kts 347°
2026-04-27 15:38 49.82676 -1.79421 18859 ft 372 kts 347°
2026-04-27 15:38 49.85188 -1.80296 18327 ft 369 kts 344°
2026-04-27 15:38 49.87631 -1.81452 17759 ft 366 kts 341°
2026-04-27 15:39 49.90029 -1.82708 17207 ft 363 kts 340°
2026-04-27 15:39 49.92412 -1.83964 16661 ft 360 kts 340°
2026-04-27 15:39 49.94774 -1.85202 16133 ft 357 kts 340°
2026-04-27 15:39 49.97113 -1.86421 15626 ft 353 kts 340°
2026-04-27 15:40 49.99437 -1.87624 15107 ft 350 kts 340°
2026-04-27 15:40 50.01753 -1.88812 14599 ft 347 kts 340°
2026-04-27 15:40 50.04004 -1.89956 14106 ft 345 kts 340°
2026-04-27 15:40 50.06278 -1.91104 13548 ft 342 kts 340°
2026-04-27 15:41 50.08529 -1.92241 12990 ft 339 kts 340°
2026-04-27 15:41 50.10762 -1.93375 12452 ft 335 kts 340°
2026-04-27 15:41 50.12967 -1.94500 11916 ft 332 kts 340°
2026-04-27 15:41 50.15151 -1.95620 11386 ft 329 kts 340°
2026-04-27 15:42 50.17300 -1.96723 11064 ft 319 kts 340°
2026-04-27 15:42 50.19376 -1.97789 10876 ft 307 kts 340°
2026-04-27 15:42 50.21377 -1.98738 10699 ft 295 kts 343°
2026-04-27 15:42 50.23337 -1.99483 10491 ft 286 kts 345°
2026-04-27 15:43 50.25259 -2.00179 10154 ft 282 kts 345°
2026-04-27 15:43 50.27158 -2.00864 9743 ft 279 kts 345°
2026-04-27 15:43 50.29031 -2.01550 9340 ft 277 kts 345°
2026-04-27 15:43 50.30913 -2.02252 8921 ft 274 kts 345°
2026-04-27 15:44 50.32760 -2.02957 8512 ft 272 kts 345°
2026-04-27 15:44 50.34585 -2.03667 8252 ft 265 kts 345°
2026-04-27 15:44 50.36334 -2.04357 8105 ft 254 kts 345°
2026-04-27 15:44 50.37461 -2.04805 8016 ft 247 kts 345°
2026-04-27 15:45 50.39241 -2.05518 7859 ft 237 kts 345°
2026-04-27 15:45 50.40816 -2.06155 7597 ft 234 kts 345°
2026-04-27 15:45 50.42388 -2.06797 7451 ft 234 kts 345°
2026-04-27 15:45 50.43967 -2.07449 7226 ft 234 kts 345°
2026-04-27 15:46 50.45534 -2.08103 7042 ft 233 kts 345°
2026-04-27 15:46 50.47117 -2.08772 6834 ft 232 kts 345°
2026-04-27 15:46 50.48654 -2.09428 6649 ft 231 kts 345°
2026-04-27 15:46 50.50223 -2.10102 6435 ft 230 kts 345°
2026-04-27 15:47 50.51244 -2.10543 6297 ft 229 kts 345°
2026-04-27 15:47 50.52773 -2.11209 6085 ft 228 kts 345°
2026-04-27 15:47 50.54311 -2.11885 5784 ft 228 kts 345°
2026-04-27 15:47 50.56323 -2.12779 5409 ft 225 kts 345°
2026-04-27 15:48 50.57315 -2.13225 5205 ft 224 kts 345°
2026-04-27 15:48 50.58812 -2.13904 5039 ft 217 kts 345°
2026-04-27 15:48 50.60230 -2.14551 4912 ft 208 kts 345°
2026-04-27 15:49 50.62938 -2.15730 4680 ft 191 kts 352°
2026-04-27 15:49 50.64231 -2.15870 4529 ft 183 kts 358°
2026-04-27 15:49 50.65499 -2.15902 4271 ft 181 kts 360°
2026-04-27 15:49 50.66753 -2.15909 4133 ft 181 kts
2026-04-27 15:50 50.68011 -2.15911 4046 ft 180 kts
2026-04-27 15:50 50.69272 -2.15924 3972 ft 181 kts 360°
2026-04-27 15:50 50.70524 -2.15934 3891 ft 181 kts
2026-04-27 15:50 50.71799 -2.15906 3812 ft 181 kts
2026-04-27 15:51 50.72871 -2.14924 3770 ft 185 kts 52°
2026-04-27 15:51 50.73295 -2.13035 3707 ft 185 kts 77°
2026-04-27 15:51 50.73525 -2.10990 3439 ft 188 kts 76°
2026-04-27 15:51 50.73843 -2.08980 3147 ft 191 kts 71°
2026-04-27 15:52 50.74206 -2.06974 2863 ft 193 kts 73°
2026-04-27 15:52 50.74539 -2.04927 2611 ft 191 kts 73°
2026-04-27 15:52 50.74887 -2.02864 2320 ft 191 kts 73°
2026-04-27 15:52 50.75211 -2.00912 2076 ft 181 kts 73°
2026-04-27 15:53 50.75531 -1.99019 1834 ft 173 kts 73°
2026-04-27 15:53 50.75824 -1.97277 1623 ft 159 kts 73°
2026-04-27 15:53 50.76094 -1.95651 1411 ft 148 kts 72°
2026-04-27 15:53 50.76350 -1.94129 1218 ft 138 kts 72°
2026-04-27 15:54 50.76587 -1.92717 1029 ft 132 kts 72°
2026-04-27 15:54 50.76819 -1.91340 876 ft 128 kts 75°
2026-04-27 15:54 50.77056 -1.89921 714 ft 134 kts 76°
2026-04-27 15:54 50.77300 -1.88461 504 ft 134 kts 77°
2026-04-27 15:55 50.77539 -1.87045 307 ft 133 kts 79°
2026-04-27 15:55 50.77698 -1.86098 208 ft 134 kts 77°
2026-04-27 15:55 50.78013 -1.84218 46 ft 115 kts 84°
2026-04-27 15:55 50.78144 -1.83433 52 ft 35 kts 73°
2026-04-27 15:56 50.78173 -1.83254 51 ft 10 kts 72°
2026-04-27 15:56 50.78194 -1.83148 51 ft 12 kts 72°
2026-04-27 15:56 50.78213 -1.83003 49 ft 15 kts 78°
2026-04-27 15:56 50.78246 -1.82826 50 ft 13 kts 73°
2026-04-27 15:57 50.78262 -1.82753 50 ft 5 kts 62°
2026-04-27 15:57 50.78255 -1.82727 50 ft 2 kts 129°
2026-04-27 15:57 50.78235 -1.82721 50 ft 2 kts 189°
2026-04-27 15:57 50.78229 -1.82745 50 ft 5 kts 255°
2026-04-27 15:58 50.78230 -1.82905 49 ft 23 kts 257°
2026-04-27 15:58 50.78176 -1.83233 51 ft 37 kts 255°
2026-04-27 15:58 50.78112 -1.83622 51 ft 34 kts 255°
2026-04-27 15:58 50.78054 -1.83873 47 ft 15 kts 219°
2026-04-27 15:59 50.78003 -1.83876 51 ft 6 kts 163°
2026-04-27 15:59 50.77950 -1.83853 52 ft 10 kts 165°
2026-04-27 15:59 50.77840 -1.83806 52 ft 22 kts 165°
2026-04-27 15:59 50.77731 -1.83758 52 ft 12 kts 164°
2026-04-27 16:00 50.77638 -1.83719 52 ft 11 kts 165°
2026-04-27 16:00 50.77600 -1.83679 52 ft 11 kts 129°
2026-04-27 16:00 50.77582 -1.83575 52 ft 0 kts 86°
2026-04-27 16:00 50.77582 -1.83570 52 ft 1 kts 84°
2026-04-27 16:01 50.77601 -1.83511 51 ft 10 kts 44°
2026-04-27 16:01 50.77690 -1.83472 52 ft 16 kts
2026-04-27 16:01 50.77805 -1.83469 52 ft 18 kts 357°
2026-04-27 16:01 50.77889 -1.83483 52 ft 5 kts
2026-04-27 16:02 50.77900 -1.83468 52 ft 2 kts 47°
2026-04-27 16:02 50.77902 -1.83453 52 ft 2 kts 83°
2026-04-27 16:02 50.77903 -1.83418 52 ft 2 kts 87°
2026-04-27 16:02 50.77903 -1.83401 52 ft 0 kts 86°